Regional Weather Roundup
Issued by NWS

Home | Current Version | Previous Version | Text Only | Print | Product List | Glossary On
Versions: 1 2 3 4 5 6 7 8 9 10 11 12 13 14 15 16 17 18 19 20 21 22 23 24 25 26 27 28 29 30 31 32 33 34 35 36 37 38 39 40 41 42 43 44 45 46 47 48 49 50
000
ASUS44 KOUN 020410
RWROK

WEATHER ROUNDUP FOR OKLAHOMA
NATIONAL WEATHER SERVICE NORMAN OK
1100 PM CDT WED JUL 01 2015

NOTE: "FAIR" INDICATES FEW OR NO CLOUDS BELOW 12,000 FEET WITH NO
      SIGNIFICANT WEATHER AND/OR OBSTRUCTIONS TO VISIBILITY.

OKZ001>007-009>012-014-015-017-020500-
NORTHWEST OKLAHOMA AND THE PANHANDLE

CITY           SKY/WX    TMP DP  RH WIND       PRES   REMARKS
GAGE           CLEAR     81  66  60 S8        29.90R
GUYMON         CLOUDY    81  60  48 NE5       29.95R
ENID/WOODRING  PTCLDY    84  68  58 SW12      29.83R
$$

OKZ016-021>023-033>039-044-045-020500-
SOUTHWEST OKLAHOMA

CITY           SKY/WX    TMP DP  RH WIND       PRES   REMARKS
LAWTON/REGL    CLEAR     81  67  62 S9        29.91R
LAWTON/FT SILL CLEAR     82  69  62 S8        29.90R
FREDERICK      PTCLDY    81  67  62 S8        29.89R
CLINTON        CLEAR     82  67  60 S16       29.92R
HOBART         CLEAR     81  67  62 SW10      29.91R
ALTUS AFB      CLEAR     80  68  66 S8        29.90R
$$

OKZ018>020-024>031-020500-
CENTRAL OKLAHOMA

CITY           SKY/WX    TMP DP  RH WIND       PRES   REMARKS
OKLAHOMA CITY  PTCLDY    81  69  67 S12       29.89R
OKC/WILEY POST   N/A     84  68  58 S17G26    29.88R
OKC/TINKER AFB MOCLDY    82  69  65 S14       29.88S
STILLWATER     CLOUDY    84  70  62 S12       29.84R
GUTHRIE        MOCLDY    87  68  52 SW16G24   29.85R HX  90
$$

OKZ008-013-054>072-020500-
NORTHEAST OKLAHOMA

CITY           SKY/WX    TMP DP  RH WIND       PRES   REMARKS
TULSA          MOCLDY    86  73  65 S18G25    29.82F HX  93
TULSA/JONES    MOCLDY    84  72  67 S12       29.83S
PONCA CITY     PTCLDY    84  71  65 S6        29.82R
BARTLESVILLE   PTCLDY    85  71  63 SW12G22   29.81S HX  90
MUSKOGEE       PTCLDY    82  72  71 S13G22    29.86F
$$

OKZ032-040>043-046>053-073>077-020500-
SOUTH CENTRAL/SOUTHEAST OKLAHOMA

CITY           SKY/WX    TMP DP  RH WIND       PRES   REMARKS
ARDMORE/DWNTWN CLEAR     81  66  61 SW7       29.92S
MCALESTER      PTCLDY    83  71  67 S8        29.92R
$$




USA.gov is the U.S. government's official web portal to all federal, state and local government web resources and services.